FALCON 9 DEB (53091 NORAD) Tracking and Keplerian Element Data

This shows tracking and keplerian element data for the satellite.

Feedback or suggestion? Click here.




ElementValue
Catalog53091
NameFALCON 9 DEB
Epoch Orbit895
Epoch Day248.04611001
Epoch Year2022
RAAN73.4977
Inclination97.6521
Eccentricity0.0006274
Argument of Perigee286.8139
Mean Anonmoly73.2466
Mean Motion16.30451976
Decay Rate0.03726796
L11 53091U 22077BA 22248.04611001 .03726796 26330-5 82003-3 0 9992
L22 53091 97.6521 73.4977 0006274 286.8139 73.2466 16.30451976 8955

Live tracking and technical data element details for FALCON 9 DEB (NORAD 53091). FALCON 9 DEB can be tracked NOW for your location showing map with azimuth and elevation plus other details from your city location.

Track the satellite on the map from your city or location and see movement details for azimuth, elevation, latitude, longitude, range, height, and movement on the map or in text.







IsCatalogInMostPopularTable: catalog: 53091, numindb: 8
Update: records affected: 1



GetName: 53091 FALCON 9 DEB

Hit Count: updated at: Wed, 28 Sep 2022 22:40:45 GMT